Location: ?ern� Novina
(50.6762°N, 14.8696°E)
Time: 11:37:36
(UTC+00:00)

SJ-6B - Pass Details

Date: 03 March 2021
Orbit: 509 x 581 km, 97.6° (Epoch: 13 April)

Event Time Altitude Azimuth Distance (km) Brightness Sun altitude
Exits shadow 19:23:03 20° 211° (SSW) 1,342 4.8 -25.3°
Maximum altitude 19:25:15 35° 263° (W) 945 4.4 -25.6°
Drops below altitude 10° 19:28:59 10° 330° (NNW) 1,875 6.2 -26.2°
Sets 19:31:16 0° 340° (NNW) 2,766 7.0 -26.5°
